Location: Basse Occidentale du Courleau
(48.3833°N, 4.8333°W)
Time: 04:19:01
(UTC+00:00)

Thor Agena Rocket - Pass Details

Date: 05 July 2020
Orbit: 759 x 808 km, 99.0° (Epoch: 11 August)

Event Time Altitude Azimuth Distance (km) Brightness Sun altitude
Rises 22:23:48 0° 22° (NNE) 3,268 7.4 -14.0°
Reaches altitude 10° 22:26:22 10° 32° (NNE) 2,328 6.4 -14.2°
Maximum altitude 22:30:58 33° 96° (E) 1,279 4.4 -14.6°
Enters shadow 22:33:19 22° 142° (SE) 1,614 4.6 -14.7°
